Météo par heure à 1-e Yuldybaevo

Ce jour, 14 Avril, Mercredi

Heure Température Précipitation Vent Pression Humidité
00:00 +3°C° 0 mm 1 m/s 753 mmHg 96%
01:00 +3°C° 0 mm 1 m/s 753 mmHg 96%
02:00 +3°C° 0 mm 1 m/s 753 mmHg 96%
03:00 +3°C° 0 mm 1 m/s 753 mmHg 96%
04:00 +2°C° 0 mm 1 m/s 753 mmHg 98%
05:00 +2°C° 0 mm 1 m/s 753 mmHg 99%
06:00 +3°C° 0 mm 1 m/s 753 mmHg 99%
07:00 +3°C° 0 mm 1 m/s 752 mmHg 99%
08:00 +4°C° 0 mm 2 m/s 752 mmHg 97%
09:00 +5°C° 0 mm 2 m/s 752 mmHg 95%
10:00 +6°C° 0 mm 2 m/s 751 mmHg 93%
11:00 +8°C° 0 mm 2 m/s 751 mmHg 90%
12:00 +9°C° 0 mm 2 m/s 751 mmHg 86%
13:00 +10°C° 0 mm 2 m/s 750 mmHg 83%
14:00 +10°C° 0 mm 2 m/s 750 mmHg 81%
15:00 +12°C° 0 mm 2 m/s 750 mmHg 79%
16:00 +12°C° 0 mm 2 m/s 749 mmHg 78%
17:00 +10°C° 0 mm 2 m/s 749 mmHg 81%
18:00 +8°C° 0 mm 2 m/s 749 mmHg 84%
19:00 +6°C° 0 mm 2 m/s 749 mmHg 87%
20:00 +5°C° 0 mm 2 m/s 749 mmHg 87%
21:00 +4°C° 0 mm 2 m/s 749 mmHg 86%
22:00 +3°C° 0 mm 2 m/s 749 mmHg 85%
23:00 +3°C° 0 mm 2 m/s 748 mmHg 85%

Demain, 15 Avril, Jeudi

Heure Température Précipitation Vent Pression Humidité
00:00 +4°C° 0 mm 1 m/s 748 mmHg 85%
01:00 +3°C° 0 mm 1 m/s 748 mmHg 84%
02:00 +3°C° 0 mm 1 m/s 748 mmHg 84%
03:00 +3°C° 0 mm 1 m/s 748 mmHg 84%
04:00 +3°C° 0 mm 1 m/s 748 mmHg 84%
05:00 +4°C° 0 mm 1 m/s 748 mmHg 81%
06:00 +5°C° 0 mm 1 m/s 747 mmHg 79%
07:00 +6°C° 0 mm 1 m/s 747 mmHg 76%
08:00 +9°C° 0 mm 1 m/s 747 mmHg 70%
09:00 +11°C° 0 mm 1 m/s 747 mmHg 63%
10:00 +13°C° 0 mm 1 m/s 746 mmHg 56%
11:00 +15°C° 0 mm 2 m/s 746 mmHg 53%
12:00 +16°C° 0 mm 2 m/s 746 mmHg 49%
13:00 +17°C° 0 mm 2 m/s 745 mmHg 46%
14:00 +18°C° 0 mm 2 m/s 745 mmHg 46%
15:00 +18°C° 0 mm 2 m/s 745 mmHg 46%
16:00 +18°C° 0 mm 2 m/s 744 mmHg 45%
17:00 +16°C° 0 mm 2 m/s 744 mmHg 53%
18:00 +14°C° 0 mm 2 m/s 744 mmHg 60%
19:00 +12°C° 0 mm 1 m/s 743 mmHg 67%
20:00 +11°C° 0 mm 1 m/s 743 mmHg 68%
21:00 +10°C° 0 mm 1 m/s 743 mmHg 69%
22:00 +9°C° 0 mm 1 m/s 743 mmHg 70%
23:00 +9°C° 0 mm 1 m/s 743 mmHg 70%

Après-demain, 16 Avril, Vendredi

Heure Température Précipitation Vent Pression Humidité
00:00 +8°C° 0 mm 1 m/s 743 mmHg 70%
01:00 +8°C° 0 mm 1 m/s 742 mmHg 70%
02:00 +8°C° 0 mm 1 m/s 742 mmHg 70%
03:00 +7°C° 0 mm 1 m/s 742 mmHg 70%
04:00 +7°C° 0 mm 1 m/s 742 mmHg 70%
05:00 +8°C° 0 mm 1 m/s 742 mmHg 69%
06:00 +8°C° 0 mm 1 m/s 742 mmHg 68%
07:00 +9°C° 0 mm 1 m/s 742 mmHg 67%
08:00 +11°C° 0 mm 1 m/s 742 mmHg 60%
09:00 +13°C° 0 mm 1 m/s 742 mmHg 53%
10:00 +15°C° 0 mm 1 m/s 742 mmHg 47%
11:00 +16°C° 0 mm 0 m/s 742 mmHg 43%
12:00 +17°C° 0 mm 0 m/s 741 mmHg 39%
13:00 +18°C° 0 mm 0 m/s 741 mmHg 35%
14:00 +18°C° 0 mm 0 m/s 741 mmHg 34%
15:00 +20°C° 0 mm 1 m/s 741 mmHg 33%
16:00 +20°C° 0 mm 1 m/s 741 mmHg 32%
17:00 +19°C° 0 mm 1 m/s 741 mmHg 39%
18:00 +16°C° 0 mm 1 m/s 741 mmHg 46%
19:00 +15°C° 0 mm 1 m/s 741 mmHg 53%
20:00 +14°C° 0 mm 1 m/s 741 mmHg 57%
21:00 +13°C° 0 mm 1 m/s 741 mmHg 60%
22:00 +12°C° 0 mm 1 m/s 741 mmHg 63%
23:00 +11°C° 0 mm 1 m/s 741 mmHg 66%

17 Avril, Samedi

Heure Température Précipitation Vent Pression Humidité
00:00 +10°C° 0 mm 1 m/s 741 mmHg 69%
01:00 +9°C° 0 mm 2 m/s 741 mmHg 72%
02:00 +8°C° 0 mm 2 m/s 741 mmHg 77%
03:00 +7°C° 0 mm 2 m/s 742 mmHg 82%
04:00 +7°C° 0 mm 2 m/s 742 mmHg 87%
05:00 +7°C° 0 mm 2 m/s 742 mmHg 86%
06:00 +8°C° 0 mm 2 m/s 742 mmHg 85%
07:00 +8°C° 0 mm 2 m/s 742 mmHg 83%
08:00 +10°C° 0 mm 2 m/s 742 mmHg 74%
09:00 +13°C° 0 mm 2 m/s 742 mmHg 64%
10:00 +15°C° 0 mm 2 m/s 742 mmHg 55%
11:00 +16°C° 0 mm 2 m/s 742 mmHg 50%
12:00 +17°C° 0 mm 2 m/s 741 mmHg 45%
13:00 +18°C° 0 mm 2 m/s 741 mmHg 40%
14:00 +19°C° 0 mm 1 m/s 741 mmHg 39%
15:00 +19°C° 0 mm 1 m/s 741 mmHg 38%
16:00 +19°C° 0 mm 1 m/s 741 mmHg 37%
17:00 +17°C° 0 mm 2 m/s 741 mmHg 45%
18:00 +15°C° 0 mm 2 m/s 741 mmHg 53%
19:00 +14°C° 0 mm 2 m/s 740 mmHg 62%
20:00 +13°C° 0 mm 2 m/s 741 mmHg 67%
21:00 +12°C° 0 mm 1 m/s 741 mmHg 73%
22:00 +11°C° 0 mm 1 m/s 741 mmHg 78%
23:00 +10°C° 0 mm 1 m/s 741 mmHg 81%

18 Avril, Dimanche

Heure Température Précipitation Vent Pression Humidité
00:00 +9°C° 0 mm 1 m/s 740 mmHg 84%
01:00 +9°C° 0 mm 1 m/s 740 mmHg 86%
02:00 +8°C° 0 mm 1 m/s 740 mmHg 88%
03:00 +8°C° 0 mm 1 m/s 740 mmHg 89%
04:00 +7°C° 0 mm 1 m/s 740 mmHg 91%
05:00 +7°C° 0 mm 2 m/s 740 mmHg 88%
06:00 +7°C° 0 mm 2 m/s 740 mmHg 86%
07:00 +7°C° 0 mm 2 m/s 740 mmHg 84%
08:00 +8°C° 0 mm 3 m/s 740 mmHg 71%
09:00 +10°C° 0 mm 3 m/s 740 mmHg 59%
10:00 +11°C° 0 mm 4 m/s 740 mmHg 46%
11:00 +12°C° 0 mm 4 m/s 740 mmHg 42%
12:00 +13°C° 0 mm 4 m/s 740 mmHg 37%
13:00 +14°C° 0 mm 5 m/s 739 mmHg 32%
14:00 +13°C° 0 mm 5 m/s 740 mmHg 33%
15:00 +13°C° 0 mm 5 m/s 740 mmHg 35%
16:00 +13°C° 0 mm 5 m/s 740 mmHg 37%
17:00 +12°C° 0 mm 5 m/s 740 mmHg 42%
18:00 +9°C° 0 mm 5 m/s 740 mmHg 48%
19:00 +8°C° 0 mm 5 m/s 741 mmHg 53%
20:00 +6°C° 0 mm 5 m/s 741 mmHg 60%
21:00 +5°C° 0 mm 5 m/s 742 mmHg 67%
22:00 +2°C° 0 mm 5 m/s 743 mmHg 74%
23:00 +1°C° 0 mm 6 m/s 743 mmHg 66%

19 Avril, Lundi

Heure Température Précipitation Vent Pression Humidité
00:00 -1°C° 0 mm 6 m/s 744 mmHg 58%
01:00 -2°C° 0 mm 6 m/s 744 mmHg 51%
02:00 -2°C° 0 mm 6 m/s 745 mmHg 51%
03:00 -3°C° 0 mm 6 m/s 746 mmHg 51%
04:00 -3°C° 0 mm 6 m/s 746 mmHg 51%
05:00 -3°C° 0 mm 6 m/s 747 mmHg 47%
06:00 -3°C° 0 mm 6 m/s 747 mmHg 44%
07:00 -3°C° 0 mm 6 m/s 748 mmHg 41%
08:00 -2°C° 0 mm 6 m/s 748 mmHg 37%
09:00 -1°C° 0 mm 6 m/s 748 mmHg 32%
10:00 +1°C° 0 mm 6 m/s 748 mmHg 28%
11:00 +1°C° 0 mm 6 m/s 748 mmHg 27%
12:00 +2°C° 0 mm 6 m/s 749 mmHg 26%
13:00 +3°C° 0 mm 6 m/s 749 mmHg 25%
14:00 +3°C° 0 mm 6 m/s 749 mmHg 26%
15:00 +3°C° 0 mm 6 m/s 749 mmHg 26%
16:00 +3°C° 0 mm 6 m/s 749 mmHg 27%
17:00 +2°C° 0 mm 5 m/s 749 mmHg 30%
18:00 +1°C° 0 mm 5 m/s 750 mmHg 33%
19:00 0°C° 0 mm 4 m/s 750 mmHg 36%
20:00 -1°C° 0 mm 4 m/s 751 mmHg 39%
21:00 -1°C° 0 mm 3 m/s 751 mmHg 41%
22:00 -2°C° 0 mm 3 m/s 752 mmHg 43%
23:00 -2°C° 0 mm 3 m/s 752 mmHg 43%
Voir plus

Nous avons besoin de votre consentement

Meteoprog et ses fournisseurs de services peuvent stocker et accéder à des données personnelles telles que des cookies, des identifiants d'appareils ou d'autres technologies similaires sur votre appareil et traiter ces données pour personnaliser le contenu et les publicités, ainsi que pour fournir des fonctionnalités de médias sociaux et analyser le trafic.

  • Stocker et/ou accéder à des informations sur votre appareil

    Des cookies, des identifiants d'appareils ou d'autres informations peuvent être stockés ou accessibles sur votre appareil aux fins indiquées ci-dessus.

  • Annonces et contenus personnalisés, mesure des annonces et des contenus, connaissance de l'audience et développement de produits

    Les annonces et le contenu peuvent être personnalisés en fonction d'un profil. D'autres données peuvent être ajoutées pour mieux personnaliser les annonces et le contenu. Les performances des publicités et du contenu peuvent être mesurées. Il est possible d'obtenir des informations sur le public qui a vu les publicités et le contenu. Ces données peuvent être utilisées pour développer ou améliorer l'expérience de l'utilisateur, les systèmes et les logiciels.

En cliquant sur "J'accepte", vous autorisez l'utilisation de cookies, des identifiants d'appareils, des balises web ou d'autres technologies similaires. Vos paramètres peuvent être modifiés dans le navigateur de votre appareil.

Dans certains cas, des intérêts légitimes peuvent être invoqués plutôt qu'un consentement. Vous pouvez en savoir plus à ce sujet dans notre Politique de confidentialité et de cookies.